When you browse on this site, cookies collect data to enhance your experience and personalize the content and advertising you see.
Visit our Privacy Policy to learn more. By continuing to use the site, you agree to this use of cookies and data.

Hourly Weather Konstantyna

Today, 7 July, Tuesday

Time Temperature Precipitation Wind Pressure Humidity
00:00 +20°C° 0 mm 1 mps 710 mmHg 82%
01:00 +19°C° 0 mm 1 mps 709 mmHg 82%
02:00 +19°C° 0 mm 1 mps 709 mmHg 83%
03:00 +19°C° 0 mm 1 mps 709 mmHg 83%
04:00 +19°C° 0 mm 1 mps 709 mmHg 78%
05:00 +20°C° 0 mm 1 mps 710 mmHg 72%
06:00 +21°C° 0 mm 1 mps 710 mmHg 66%
07:00 +23°C° 0 mm 2 mps 710 mmHg 58%
08:00 +25°C° 0 mm 2 mps 711 mmHg 49%
09:00 +27°C° 0 mm 3 mps 711 mmHg 40%
10:00 +28°C° 0 mm 3 mps 711 mmHg 38%
11:00 +30°C° 0 mm 3 mps 712 mmHg 35%
12:00 +32°C° 0 mm 4 mps 712 mmHg 33%
13:00 +32°C° 0 mm 4 mps 711 mmHg 32%
14:00 +32°C° 0 mm 4 mps 711 mmHg 32%
15:00 +33°C° 0 mm 5 mps 711 mmHg 32%
16:00 +30°C° 0 mm 4 mps 711 mmHg 37%
17:00 +29°C° 0 mm 4 mps 711 mmHg 41%
18:00 +27°C° 0 mm 4 mps 710 mmHg 46%
19:00 +26°C° 0 mm 3 mps 711 mmHg 52%
20:00 +24°C° 0 mm 2 mps 711 mmHg 58%
21:00 +22°C° 0 mm 1 mps 711 mmHg 64%
22:00 +22°C° 0 mm 1 mps 711 mmHg 65%
23:00 +20°C° 0 mm 0 mps 710 mmHg 65%

Tomorrow, 8 July, Wednesday

Time Temperature Precipitation Wind Pressure Humidity
00:00 +19°C° 0 mm 0 mps 710 mmHg 66%
01:00 +19°C° 0 mm 0 mps 710 mmHg 66%
02:00 +19°C° 0 mm 0 mps 710 mmHg 65%
03:00 +19°C° 0 mm 0 mps 710 mmHg 65%
04:00 +20°C° 0 mm 0 mps 710 mmHg 60%
05:00 +21°C° 0 mm 0 mps 710 mmHg 55%
06:00 +22°C° 0 mm 0 mps 711 mmHg 51%
07:00 +26°C° 0 mm 1 mps 711 mmHg 44%
08:00 +28°C° 0 mm 2 mps 712 mmHg 37%
09:00 +30°C° 0 mm 2 mps 712 mmHg 30%
10:00 +33°C° 0 mm 3 mps 712 mmHg 27%
11:00 +34°C° 0 mm 4 mps 712 mmHg 23%
12:00 +36°C° 0 mm 5 mps 712 mmHg 20%
13:00 +36°C° 0 mm 5 mps 712 mmHg 20%
14:00 +36°C° 0 mm 5 mps 712 mmHg 20%
15:00 +35°C° 0 mm 5 mps 712 mmHg 21%
16:00 +34°C° 0 mm 5 mps 711 mmHg 23%
17:00 +32°C° 0 mm 4 mps 711 mmHg 26%
18:00 +30°C° 0 mm 3 mps 711 mmHg 29%
19:00 +28°C° 0 mm 2 mps 711 mmHg 33%
20:00 +26°C° 0 mm 2 mps 711 mmHg 38%
21:00 +24°C° 0 mm 1 mps 711 mmHg 43%
22:00 +23°C° 0 mm 1 mps 711 mmHg 42%
23:00 +23°C° 0 mm 1 mps 711 mmHg 41%

Day after tomorrow, 9 July, Thursday

Time Temperature Precipitation Wind Pressure Humidity
00:00 +20°C° 0 mm 0 mps 711 mmHg 41%
01:00 +20°C° 0 mm 0 mps 711 mmHg 40%
02:00 +20°C° 0 mm 0 mps 711 mmHg 40%
03:00 +19°C° 0 mm 0 mps 710 mmHg 39%
04:00 +21°C° 0 mm 0 mps 711 mmHg 36%
05:00 +22°C° 0 mm 0 mps 711 mmHg 32%
06:00 +25°C° 0 mm 1 mps 711 mmHg 29%
07:00 +28°C° 0 mm 1 mps 712 mmHg 25%
08:00 +30°C° 0 mm 1 mps 712 mmHg 20%
09:00 +31°C° 0 mm 0 mps 712 mmHg 16%
10:00 +34°C° 0 mm 1 mps 712 mmHg 14%
11:00 +36°C° 0 mm 1 mps 712 mmHg 12%
12:00 +38°C° 0 mm 2 mps 712 mmHg 10%
13:00 +38°C° 0 mm 3 mps 712 mmHg 11%
14:00 +39°C° 0 mm 5 mps 712 mmHg 13%
15:00 +39°C° 0 mm 6 mps 711 mmHg 14%
16:00 +36°C° 0 mm 5 mps 711 mmHg 19%
17:00 +34°C° 0 mm 5 mps 711 mmHg 24%
18:00 +32°C° 0 mm 4 mps 711 mmHg 30%
19:00 +29°C° 0 mm 3 mps 711 mmHg 38%
20:00 +27°C° 0 mm 2 mps 711 mmHg 46%
21:00 +25°C° 0 mm 1 mps 711 mmHg 53%
22:00 +25°C° 0 mm 1 mps 710 mmHg 52%
23:00 +24°C° 0 mm 1 mps 710 mmHg 50%

10 July, Friday

Time Temperature Precipitation Wind Pressure Humidity
00:00 +24°C° 0 mm 1 mps 710 mmHg 49%
01:00 +24°C° 0 mm 1 mps 709 mmHg 47%
02:00 +24°C° 0 mm 1 mps 709 mmHg 46%
03:00 +24°C° 0 mm 1 mps 709 mmHg 44%
04:00 +25°C° 0 mm 1 mps 709 mmHg 41%
05:00 +26°C° 0 mm 1 mps 709 mmHg 38%
06:00 +28°C° 0 mm 1 mps 710 mmHg 34%
07:00 +30°C° 0 mm 1 mps 710 mmHg 28%
08:00 +34°C° 0 mm 2 mps 711 mmHg 22%
09:00 +36°C° 0 mm 2 mps 711 mmHg 15%
10:00 +37°C° 0 mm 3 mps 711 mmHg 15%
11:00 +38°C° 0 mm 3 mps 711 mmHg 14%
12:00 +40°C° 0 mm 4 mps 711 mmHg 13%
13:00 +40°C° 0 mm 5 mps 711 mmHg 14%
14:00 +40°C° 0 mm 5 mps 710 mmHg 14%
15:00 +40°C° 0 mm 5 mps 710 mmHg 15%
16:00 +37°C° 0 mm 4 mps 710 mmHg 17%
17:00 +36°C° 0 mm 4 mps 710 mmHg 20%
18:00 +35°C° 0 mm 4 mps 710 mmHg 23%
19:00 +33°C° 0 mm 3 mps 710 mmHg 28%
20:00 +30°C° 0 mm 2 mps 710 mmHg 33%
21:00 +27°C° 0 mm 1 mps 711 mmHg 38%
22:00 +27°C° 0 mm 1 mps 710 mmHg 38%
23:00 +27°C° 0 mm 1 mps 710 mmHg 37%

11 July, Saturday

Time Temperature Precipitation Wind Pressure Humidity
00:00 +27°C° 0 mm 1 mps 710 mmHg 37%
01:00 +26°C° 0 mm 1 mps 709 mmHg 37%
02:00 +26°C° 0 mm 1 mps 709 mmHg 38%
03:00 +26°C° 0 mm 1 mps 709 mmHg 38%
04:00 +27°C° 0 mm 1 mps 709 mmHg 36%
05:00 +28°C° 0 mm 1 mps 710 mmHg 33%
06:00 +29°C° 0 mm 1 mps 710 mmHg 31%
07:00 +31°C° 0 mm 1 mps 711 mmHg 27%
08:00 +33°C° 0 mm 1 mps 711 mmHg 23%
09:00 +35°C° 0 mm 1 mps 712 mmHg 19%
10:00 +37°C° 0 mm 2 mps 712 mmHg 17%
11:00 +39°C° 0 mm 2 mps 712 mmHg 15%
12:00 +40°C° 0 mm 2 mps 712 mmHg 14%
13:00 +39°C° 0 mm 3 mps 711 mmHg 15%
14:00 +40°C° 0 mm 4 mps 711 mmHg 16%
15:00 +40°C° 0 mm 5 mps 711 mmHg 17%
16:00 +38°C° 0 mm 4 mps 711 mmHg 19%
17:00 +37°C° 0 mm 3 mps 710 mmHg 21%
18:00 +35°C° 0 mm 2 mps 710 mmHg 23%
19:00 +34°C° 0 mm 2 mps 710 mmHg 27%
20:00 +31°C° 0 mm 1 mps 710 mmHg 31%
21:00 +29°C° 0 mm 1 mps 710 mmHg 36%
22:00 +29°C° 0 mm 1 mps 710 mmHg 34%
23:00 +29°C° 0 mm 1 mps 710 mmHg 33%

12 July, Sunday

Time Temperature Precipitation Wind Pressure Humidity
00:00 +28°C° 0 mm 1 mps 710 mmHg 32%
01:00 +28°C° 0 mm 1 mps 709 mmHg 32%
02:00 +28°C° 0 mm 1 mps 709 mmHg 32%
03:00 +27°C° 0 mm 1 mps 709 mmHg 32%
04:00 +29°C° 0 mm 1 mps 709 mmHg 29%
05:00 +30°C° 0 mm 1 mps 710 mmHg 27%
06:00 +31°C° 0 mm 2 mps 710 mmHg 25%
07:00 +34°C° 0 mm 2 mps 711 mmHg 22%
08:00 +37°C° 0 mm 3 mps 711 mmHg 19%
09:00 +40°C° 0 mm 4 mps 712 mmHg 16%
10:00 +41°C° 0 mm 4 mps 712 mmHg 15%
11:00 +42°C° 0 mm 5 mps 712 mmHg 14%
12:00 +43°C° 0 mm 5 mps 712 mmHg 12%
13:00 +43°C° 0 mm 5 mps 711 mmHg 13%
14:00 +43°C° 0 mm 5 mps 711 mmHg 13%
15:00 +42°C° 0 mm 6 mps 711 mmHg 14%
16:00 +41°C° 0 mm 5 mps 710 mmHg 16%
17:00 +40°C° 0 mm 4 mps 710 mmHg 18%
18:00 +37°C° 0 mm 3 mps 710 mmHg 20%
19:00 +35°C° 0 mm 2 mps 710 mmHg 24%
20:00 +32°C° 0 mm 1 mps 710 mmHg 27%
21:00 +28°C° 0 mm 0 mps 710 mmHg 31%
22:00 +30°C° 0 mm 1 mps 710 mmHg 31%
23:00 +29°C° 0 mm 1 mps 709 mmHg 30%
Show more